Tracking 31030 objects as of 17-Jul-2025
HD Live streaming from Space Station
objects crossing your sky now

STARLINK-11582

Track STARLINK-11582 now!
10-day predictions
STARLINK-11582 is classified as:


NORAD ID: 62985
Int'l Code: 2025-031E
Perigee: 362.0 km
Apogee: 365.2 km
Inclination: 43.0 °
Period: 91.7 minutes
Semi major axis: 6734 km
RCS: Unknown
Launch date: February 11, 2025
Source: United States (US)
Launch site: AIR FORCE EASTERN TEST RANGE (AFETR)
Your satellite tracking list
Your tracking list is empty




NASA's NSSDC Master Catalog

Two Line Element Set (TLE):
1 62985U 25031E   25197.91668981 -.00069123  00000-0 -53912-3 0  9999
2 62985  43.0002 342.6622 0002377 272.3151 353.5008 15.70860747 25653
Source of the keplerian elements: AFSPC